[[{"header":{"parameterUnit":"m.s-1","parameterCategory":1,"la1":30.2991,"la2":30.254,"lo1":-89.0895,"lo2":-89.0444,"dy":0.0017,"dx":0.0017,"nx":28,"ny":28,"refTime":"2024-05-16T09:00:00:Z","depth":0,"parameterNumber":2,"parameterNumberName":"U-component_of_WINDS"},"data":[0,0,0,0,0,0,0,0,0,0,0,0,0,0,0,0,0,0,0,0,0,0,0,0,0,0,0,0,0,0,0,0,0,0,0,0,0,0,0,0,0,0,0,0,0,0,0,0,0,0,0,0,0,0,0,0,0,0,0.0969,0.0969,0,0.0949,0.0949,0.0949,0.0908,0.0907,0.0906,0.0906,0.0888,0.0888,0.0889,0,0,0,0,0,0,0,0,0,0,0,0,0,0.0974,0.0974,0.0969,0.0969,0.0969,0.0949,0.0949,0.0949,0.0908,0.0907,0.0906,0.0905,0.0888,0.0888,0.0889,0,0,0,0,0,0,0,0,0,0,0,0,0,0.0965,0.0974,0.0969,0.0946,0.0944,0.0949,0.0949,0.0949,0.0908,0.0907,0.0906,0.0905,0.0888,0.0888,0.0889,0.0916,0,0,0.089,0.089,0,0,0,0,0,0,0,0,0.0965,0.0965,0.095,0.0948,0.0945,0.093,0.0944,0.0938,0.0909,0.0922,0.0906,0.0904,0.0903,0.0902,0.0901,0.0915,0.0915,0.089,0.089,0.0891,0.0891,0,0,0,0,0,0,0,0.0966,0.0965,0.0961,0.0949,0.0947,0.0937,0.0935,0.0943,0.092,0.0921,0.0918,0.0916,0.0902,0.0901,0.0901,0.0914,0.089,0.0891,0.0891,0.0891,0.095,0.0951,0,0,0,0,0,0,0.097,0.0966,0.0962,0.0961,0.0952,0.0938,0.0935,0.0936,0.092,0.0916,0.0917,0.0914,0.0901,0.09,0.09,0.0931,0.0891,0.0891,0.0891,0.0948,0.095,0.0951,0,0,0,0,0,0,0.097,0.097,0.0963,0.0963,0.0961,0.0939,0.0941,0.0936,0.0935,0.0917,0.0912,0.092,0.09,0.0899,0.0912,0.093,0.0891,0.0892,0.0947,0.0949,0.0951,0.0993,0,0,0,0,0,0,0.097,0.097,0.098,0.0963,0.0961,0.0975,0.0942,0.0937,0.0936,0.0932,0.0919,0.0915,0.0899,0.0912,0.0913,0.093,0.0892,0.0945,0.0948,0.095,0.099,0.0996,0.1001,0,0,0,0,0,0.0971,0.0993,0.0981,0.098,0.0973,0.0976,0.0975,0.0955,0.0938,0.0948,0.0935,0.0916,0.0927,0.0913,0.0914,0.0931,0.0944,0.0947,0.095,0.0987,0.0995,0.1001,0,0,0,0,0,0,0.1014,0.0991,0.0976,0.0994,0.0987,0.0969,0.0981,0.0963,0.0962,0.0958,0.0934,0.0931,0.0948,0.0941,0.0926,0.0957,0.0933,0.0936,0.0961,0.0968,0.0974,0.0975,0.0892,0,0,0,0,0,0.1025,0.1029,0.1009,0.1026,0.1024,0.1003,0.1004,0.0989,0.0981,0.0978,0.0967,0.0961,0.0963,0.0965,0.0966,0.0989,0.0985,0.1001,0.1007,0.1011,0.1015,0.1026,0.1033,0.0961,0.0961,0.0961,0,0,0.1049,0.1037,0.1041,0.1035,0.1028,0.1033,0.1001,0.1008,0.1012,0.0979,0.0991,0.0982,0.0974,0.0992,0.0999,0.0986,0.1034,0.1015,0.1019,0.102,0.103,0.1036,0.1043,0.0963,0.0963,0.0962,0,0,0.1095,0.1086,0.11,0.1093,0.1082,0.1068,0.1072,0.1056,0.1049,0.106,0.1035,0.104,0.1044,0.1039,0.1037,0.1081,0.1063,0.1082,0.1112,0.1123,0.1129,0.1134,0.115,0.1156,0.1085,0.1085,0.1085,0,0.1127,0.1133,0.1109,0.1117,0.1116,0.1085,0.1099,0.1094,0.1085,0.1085,0.107,0.1075,0.1067,0.1083,0.1094,0.1093,0.1096,0.1084,0.113,0.1135,0.1139,0.1154,0.116,0.1088,0.1087,0.1087,0.1087,0,0.1172,0.1176,0.1189,0.1179,0.1179,0.119,0.1169,0.1171,0.1156,0.1144,0.1155,0.1144,0.1143,0.1145,0.1131,0.1159,0.1152,0.1134,0.1109,0.1149,0.1162,0.1167,0.1091,0.109,0.1089,0.1089,0,0,0.1245,0.1222,0.1227,0.1222,0.1208,0.1211,0.1221,0.1218,0.1221,0.1215,0.1223,0.1227,0.121,0.1208,0.1193,0.1203,0.1238,0.1184,0.1183,0.1195,0.1269,0.1283,0.129,0.1226,0.1227,0.1228,0.127,0,0.1288,0.1303,0.1282,0.1302,0.1306,0.1277,0.1285,0.1278,0.1267,0.1269,0.1257,0.126,0.1237,0.1236,0.1244,0.1232,0.1253,0.1229,0.1234,0.1234,0.1237,0.1297,0.1311,0.1351,0.1275,0.1276,0.1277,0,0.1341,0.1337,0.1357,0.134,0.1341,0.1349,0.1345,0.1347,0.1338,0.1329,0.1327,0.1308,0.1317,0.1292,0.1305,0.1289,0.129,0.1284,0.1285,0.1285,0.1258,0.1299,0.1364,0.137,0.1285,0.1284,0.1283,0,0.1393,0.1392,0.1404,0.14,0.1382,0.1388,0.1381,0.1371,0.137,0.1367,0.1366,0.1364,0.1363,0.1362,0.1344,0.1328,0.1359,0.1333,0.1352,0.1353,0.136,0.136,0.1427,0.136,0.136,0.136,0.136,0,0.1443,0.1456,0.1426,0.1434,0.1448,0.1424,0.1439,0.1429,0.142,0.1425,0.14,0.1406,0.1381,0.1384,0.1369,0.1382,0.1382,0.1375,0.1371,0.1377,0.1378,0.1378,0.1375,0.1362,0.1361,0.1361,0.1361,0,0.1503,0.1484,0.1495,0.1476,0.1472,0.1483,0.1467,0.1473,0.146,0.1467,0.1467,0.1447,0.1449,0.143,0.143,0.142,0.1439,0.143,0.1442,0.144,0.146,0.1458,0.1529,0.1537,0.1466,0.1466,0.1467,0,0.1537,0.1546,0.1528,0.153,0.1523,0.1526,0.1525,0.1502,0.1502,0.1492,0.15,0.15,0.1498,0.1504,0.1489,0.1488,0.1479,0.1504,0.1479,0.1485,0.148,0.148,0.1481,0.151,0.1511,0.1511,0.1512,0,0.1599,0.1588,0.1588,0.1584,0.1583,0.1579,0.1573,0.1576,0.1551,0.1553,0.1554,0.1553,0.1551,0.1552,0.1548,0.1541,0.1523,0.152,0.1524,0.1531,0.1537,0.1534,0.1457,0.1518,0.1518,0.1517,0.1517,0.1517,0.1647,0.1654,0.1642,0.1642,0.1635,0.163,0.1635,0.1622,0.1622,0.1619,0.1605,0.1609,0.16,0.1593,0.1587,0.1591,0.1579,0.1585,0.1587,0.1589,0.1593,0.1536,0.159,0.159,0.1589,0.1589,0.1589,0,0.1707,0.1698,0.1698,0.1691,0.1691,0.1672,0.1665,0.1666,0.167,0.1662,0.1661,0.1663,0.1663,0.1649,0.1647,0.1652,0.1644,0.1653,0.1652,0.1651,0.1603,0.16,0.166,0.166,0.166,0.166,0.166,0.166,0.1739,0.1749,0.1737,0.1745,0.1735,0.1738,0.1736,0.1731,0.1725,0.1728,0.1728,0.1718,0.1707,0.1705,0.1704,0.17,0.1701,0.1713,0.1706,0.1661,0.1655,0.1648,0.1644,0.1713,0.1713,0.1753,0.1754,0.1754]},{"header":{"parameterUnit":"m.s-1","parameterCategory":1,"la1":30.2991,"la2":30.254,"lo1":-89.0895,"lo2":-89.0444,"dy":0.0017,"dx":0.0017,"nx":28,"ny":28,"refTime":"2024-05-16T09:00:00:Z","depth":0,"parameterNumber":3,"parameterNumberName":"V-component_of_WINDS"},"data":[0,0,0,0,0,0,0,0,0,0,0,0,0,0,0,0,0,0,0,0,0,0,0,0,0,0,0,0,0,0,0,0,0,0,0,0,0,0,0,0,0,0,0,0,0,0,0,0,0,0,0,0,0,0,0,0,0,0,6.1432,6.1434,0,6.1626,6.1628,6.163,6.1652,6.165,6.1648,6.1646,6.1844,6.1851,6.1858,0,0,0,0,0,0,0,0,0,0,0,0,0,6.108,6.1087,6.1431,6.1434,6.1436,6.1625,6.1628,6.1631,6.1652,6.165,6.1648,6.1645,6.1842,6.185,6.1859,0,0,0,0,0,0,0,0,0,0,0,0,0,6.1249,6.1089,6.1431,6.147,6.1475,6.1625,6.1628,6.1631,6.1653,6.165,6.1647,6.1644,6.1839,6.185,6.186,6.1984,0,0,6.1892,6.1897,0,0,0,0,0,0,0,0,6.124,6.1262,6.1462,6.1468,6.1474,6.1612,6.1577,6.1749,6.1654,6.1585,6.1646,6.1643,6.1769,6.1785,6.1828,6.1993,6.2001,6.1893,6.19,6.1904,6.1907,0,0,0,0,0,0,0,6.1228,6.1254,6.1508,6.1465,6.1472,6.1478,6.1499,6.161,6.1691,6.1591,6.1593,6.1616,6.1772,6.1818,6.1833,6.2004,6.1893,6.1903,6.1909,6.1913,6.2282,6.2286,0,0,0,0,0,0,6.1209,6.1244,6.1502,6.1514,6.1347,6.1487,6.151,6.157,6.169,6.1706,6.1618,6.1616,6.1801,6.1821,6.184,6.1994,6.1904,6.1914,6.192,6.2279,6.2283,6.2287,0,0,0,0,0,0,6.1201,6.1232,6.1494,6.138,6.1414,6.1496,6.1563,6.1576,6.1622,6.1711,6.1725,6.165,6.18,6.1825,6.1948,6.2001,6.1919,6.1929,6.2275,6.228,6.2285,6.2302,0,0,0,0,0,0,6.1191,6.1229,6.1277,6.1381,6.142,6.1599,6.1567,6.1582,6.164,6.1639,6.1744,6.1759,6.1799,6.1932,6.1959,6.2014,6.1937,6.227,6.2277,6.2283,6.2297,6.2307,6.2316,0,0,0,0,0,6.1179,6.1273,6.1279,6.131,6.1481,6.1602,6.1624,6.1669,6.1644,6.1693,6.175,6.1756,6.1991,6.1945,6.1975,6.2034,6.2267,6.2275,6.2283,6.2293,6.2305,6.2315,0,0,0,0,0,0,6.1172,6.1287,6.1295,6.1426,6.1504,6.1605,6.1668,6.168,6.1767,6.1763,6.1814,6.1838,6.1959,6.2009,6.1955,6.2161,6.2127,6.2141,6.2124,6.2137,6.2146,6.2131,6.1946,0,0,0,0,0,6.1186,6.1275,6.1371,6.1477,6.1516,6.1585,6.164,6.1668,6.1751,6.1784,6.185,6.193,6.2023,6.2082,6.2172,6.2304,6.2328,6.236,6.2369,6.2377,6.2388,6.2464,6.248,6.2312,6.2312,6.2312,0,0,6.1216,6.1289,6.1342,6.1478,6.1541,6.1633,6.1613,6.171,6.1778,6.1798,6.1919,6.1971,6.2064,6.2193,6.2253,6.2238,6.244,6.2386,6.2391,6.24,6.2473,6.2489,6.2503,6.2317,6.2316,6.2316,0,0,6.1316,6.1381,6.1477,6.1542,6.1639,6.1685,6.1708,6.1809,6.1844,6.1966,6.1983,6.2066,6.2223,6.2289,6.2343,6.2471,6.248,6.2499,6.2547,6.262,6.2634,6.2645,6.2692,6.2708,6.251,6.251,6.251,0,6.134,6.1479,6.1525,6.1622,6.1682,6.1705,6.1803,6.1864,6.1985,6.2026,6.2008,6.2207,6.2271,6.2417,6.2448,6.2491,6.252,6.2487,6.2628,6.264,6.2652,6.2698,6.2715,6.2512,6.2512,6.2511,6.2511,0,6.1505,6.16,6.1667,6.1784,6.1851,6.1948,6.201,6.2072,6.2094,6.2142,6.2267,6.2345,6.2452,6.2489,6.2511,6.2638,6.2626,6.2617,6.2584,6.2669,6.2713,6.273,6.2514,6.2514,6.2513,6.2513,0,0,6.1606,6.1749,6.1773,6.1827,6.1937,6.2012,6.2111,6.2216,6.2269,6.2352,6.2437,6.257,6.2564,6.2625,6.2655,6.2719,6.2817,6.2703,6.2706,6.2723,6.2964,6.297,6.299,6.2823,6.2827,6.283,6.2956,0,6.172,6.1897,6.1942,6.2093,6.2183,6.2207,6.2293,6.237,6.2418,6.2501,6.2554,6.2648,6.2631,6.2669,6.2733,6.2791,6.2866,6.2783,6.2904,6.2907,6.288,6.3012,6.3019,6.3135,6.2974,6.2976,6.2979,0,6.1877,6.1964,6.2124,6.2224,6.2264,6.234,6.2441,6.252,6.2608,6.2639,6.2708,6.2733,6.2837,6.2798,6.2944,6.2886,6.2938,6.2975,6.298,6.2994,6.2949,6.303,6.3173,6.3191,6.3006,6.3003,6.3001,0,6.1936,6.2094,6.2211,6.2257,6.2375,6.2429,6.2481,6.2567,6.2627,6.2715,6.2756,6.2854,6.2908,6.2985,6.3035,6.3002,6.3178,6.3142,6.3206,6.3205,6.3243,6.324,6.3396,6.3275,6.3274,6.3274,6.3274,0,6.2059,6.2157,6.224,6.2311,6.2422,6.2473,6.258,6.2633,6.2709,6.2792,6.2818,6.2896,6.2958,6.3044,6.3084,6.3199,6.3223,6.3251,6.3261,6.325,6.3246,6.3285,6.3279,6.3279,6.3278,6.3277,6.3276,0,6.2145,6.2204,6.2333,6.2435,6.2464,6.254,6.2628,6.2699,6.2748,6.2853,6.288,6.2957,6.306,6.3118,6.3247,6.3275,6.3403,6.3409,6.3374,6.3378,6.344,6.3434,6.3628,6.3656,6.3514,6.3515,6.3516,0,6.222,6.2296,6.2407,6.2464,6.2517,6.261,6.2672,6.2726,6.279,6.2897,6.2956,6.306,6.3147,6.331,6.3377,6.3477,6.3485,6.3546,6.35,6.3487,6.3488,6.3483,6.3492,6.3554,6.3556,6.3557,6.3558,0,6.2347,6.2373,6.2463,6.2563,6.2637,6.2718,6.2799,6.2845,6.2912,6.2983,6.3088,6.3156,6.3288,6.3392,6.3497,6.3551,6.3567,6.3572,6.3592,6.3582,6.3559,6.3574,6.3397,6.3567,6.3566,6.3565,6.3565,6.3565,6.2431,6.25,6.259,6.2689,6.2755,6.283,6.2903,6.2961,6.305,6.3163,6.3189,6.3301,6.3388,6.3531,6.3588,6.3677,6.3666,6.3695,6.3702,6.3709,6.3712,6.3544,6.3696,6.3696,6.3695,6.3695,6.3695,0,6.2561,6.262,6.2711,6.2824,6.2902,6.2909,6.2999,6.3064,6.3162,6.3243,6.3328,6.3451,6.3552,6.3628,6.3732,6.3788,6.3798,6.3814,6.381,6.3823,6.3715,6.3688,6.3804,6.3804,6.3804,6.3804,6.3804,6.3804,6.2638,6.2756,6.2793,6.2944,6.3003,6.3113,6.3164,6.3234,6.3299,6.3434,6.3519,6.3568,6.3647,6.3757,6.3851,6.3871,6.3908,6.3923,6.3944,6.3842,6.383,6.3819,6.3794,6.3931,6.3931,6.4045,6.4046,6.4047]}]]